When you browse on this site, cookies collect data to enhance your experience and personalize the content and advertising you see.
Visit our Privacy Policy to learn more. By continuing to use the site, you agree to this use of cookies and data.
  • In France
  • List of Countries
  • For 7 days
  • Water Temperature
  • Satellite Maps
  • Weather Map
  • Weather Widgets
  • user-avatar
    Login

    Hourly Weather Kiustendil

    Today, 22 March, Friday

    Time Temperature Precipitation Wind Pressure Humidity
    00:00 0°C° 0 mm 1 mps 630 mmHg 88%
    01:00 0°C° 0 mm 1 mps 630 mmHg 90%
    02:00 -1°C° 0 mm 1 mps 630 mmHg 91%
    03:00 -1°C° 0 mm 1 mps 630 mmHg 92%
    04:00 -1°C° 0 mm 1 mps 630 mmHg 93%
    05:00 -1°C° 0 mm 1 mps 630 mmHg 91%
    06:00 0°C° 0 mm 1 mps 630 mmHg 89%
    07:00 +1°C° 0 mm 1 mps 630 mmHg 86%
    08:00 +3°C° 0 mm 1 mps 631 mmHg 75%
    09:00 +3°C° 0 mm 2 mps 631 mmHg 64%
    10:00 +5°C° 0 mm 2 mps 632 mmHg 52%
    11:00 +6°C° 0 mm 2 mps 632 mmHg 47%
    12:00 +7°C° 0 mm 2 mps 632 mmHg 43%
    13:00 +8°C° 0 mm 2 mps 632 mmHg 38%
    14:00 +8°C° 0 mm 3 mps 631 mmHg 38%
    15:00 +8°C° 0 mm 3 mps 631 mmHg 38%
    16:00 +8°C° 0 mm 3 mps 630 mmHg 38%
    17:00 +5°C° 0 mm 3 mps 630 mmHg 44%
    18:00 +5°C° 0 mm 2 mps 629 mmHg 51%
    19:00 +3°C° 0 mm 2 mps 629 mmHg 57%
    20:00 +2°C° 0 mm 2 mps 629 mmHg 60%
    21:00 +1°C° 0 mm 2 mps 629 mmHg 63%
    22:00 +1°C° 0 mm 2 mps 628 mmHg 66%
    23:00 -1°C° 0 mm 2 mps 628 mmHg 69%

    Tomorrow, 23 March, Saturday

    Time Temperature Precipitation Wind Pressure Humidity
    00:00 -1°C° 0 mm 2 mps 628 mmHg 71%
    01:00 -1°C° 0 mm 2 mps 628 mmHg 74%
    02:00 0°C° 0 mm 1 mps 628 mmHg 75%
    03:00 0°C° 0 mm 1 mps 627 mmHg 77%
    04:00 0°C° 0 mm 1 mps 627 mmHg 79%
    05:00 0°C° 0 mm 1 mps 627 mmHg 75%
    06:00 +1°C° 0 mm 1 mps 628 mmHg 70%
    07:00 +2°C° 0 mm 1 mps 628 mmHg 66%
    08:00 +4°C° 0 mm 1 mps 628 mmHg 57%
    09:00 +6°C° 0 mm 1 mps 629 mmHg 48%
    10:00 +7°C° 0 mm 2 mps 629 mmHg 39%
    11:00 +8°C° 0 mm 2 mps 629 mmHg 37%
    12:00 +9°C° 0 mm 2 mps 629 mmHg 35%
    13:00 +10°C° 0 mm 2 mps 629 mmHg 33%
    14:00 +10°C° 0 mm 3 mps 629 mmHg 35%
    15:00 +10°C° 0 mm 3 mps 629 mmHg 36%
    16:00 +9°C° 0 mm 3 mps 628 mmHg 38%
    17:00 +8°C° 0 mm 3 mps 628 mmHg 46%
    18:00 +5°C° 0 mm 3 mps 627 mmHg 54%
    19:00 +4°C° 0 mm 2 mps 627 mmHg 62%
    20:00 +3°C° 0 mm 2 mps 627 mmHg 66%
    21:00 +2°C° 0 mm 2 mps 627 mmHg 71%
    22:00 +2°C° 0 mm 2 mps 627 mmHg 76%
    23:00 +1°C° 0 mm 2 mps 627 mmHg 79%

    Day after tomorrow, 24 March, Sunday

    Time Temperature Precipitation Wind Pressure Humidity
    00:00 +1°C° 0 mm 2 mps 627 mmHg 82%
    01:00 +1°C° 0 mm 1 mps 626 mmHg 85%
    02:00 +1°C° 0 mm 1 mps 626 mmHg 87%
    03:00 +1°C° 0 mm 1 mps 626 mmHg 88%
    04:00 0°C° 0 mm 1 mps 626 mmHg 90%
    05:00 +1°C° 0 mm 1 mps 626 mmHg 87%
    06:00 +2°C° 0 mm 1 mps 627 mmHg 83%
    07:00 +3°C° 0 mm 1 mps 627 mmHg 80%
    08:00 +3°C° 0 mm 2 mps 628 mmHg 71%
    09:00 +5°C° 0 mm 2 mps 628 mmHg 62%
    10:00 +7°C° 0 mm 2 mps 629 mmHg 53%
    11:00 +8°C° 0 mm 3 mps 629 mmHg 48%
    12:00 +9°C° 0 mm 3 mps 628 mmHg 43%
    13:00 +10°C° 0 mm 3 mps 628 mmHg 39%
    14:00 +10°C° 0 mm 3 mps 628 mmHg 39%
    15:00 +10°C° 0 mm 3 mps 628 mmHg 39%
    16:00 +9°C° 0 mm 3 mps 627 mmHg 40%
    17:00 +7°C° 0 mm 2 mps 627 mmHg 46%
    18:00 +6°C° 0 mm 2 mps 626 mmHg 52%
    19:00 +5°C° 0 mm 1 mps 626 mmHg 58%
    20:00 +4°C° 0 mm 1 mps 625 mmHg 59%
    21:00 +3°C° 0 mm 1 mps 625 mmHg 61%
    22:00 +3°C° 0 mm 1 mps 625 mmHg 62%
    23:00 +2°C° 0 mm 1 mps 625 mmHg 64%

    25 March, Monday

    Time Temperature Precipitation Wind Pressure Humidity
    00:00 +1°C° 0 mm 0 mps 625 mmHg 65%
    01:00 +1°C° 0 mm 0 mps 624 mmHg 67%
    02:00 0°C° 0 mm 0 mps 624 mmHg 69%
    03:00 0°C° 0 mm 0 mps 624 mmHg 71%
    04:00 +1°C° 0 mm 1 mps 623 mmHg 73%
    05:00 +2°C° 0 mm 1 mps 624 mmHg 69%
    06:00 +2°C° 0 mm 1 mps 624 mmHg 65%
    07:00 +3°C° 0 mm 1 mps 624 mmHg 61%
    08:00 +5°C° 0 mm 1 mps 625 mmHg 51%
    09:00 +7°C° 0 mm 1 mps 625 mmHg 41%
    10:00 +9°C° 0 mm 2 mps 626 mmHg 32%
    11:00 +9°C° 0 mm 2 mps 626 mmHg 31%
    12:00 +10°C° 0 mm 2 mps 626 mmHg 31%
    13:00 +11°C° 0 mm 3 mps 625 mmHg 31%
    14:00 +10°C° 0 mm 3 mps 625 mmHg 33%
    15:00 +10°C° 0 mm 3 mps 624 mmHg 35%
    16:00 +9°C° 0 mm 3 mps 624 mmHg 37%
    17:00 +8°C° 0 mm 2 mps 623 mmHg 44%
    18:00 +6°C° 0 mm 2 mps 623 mmHg 51%
    19:00 +5°C° 0 mm 1 mps 622 mmHg 58%
    20:00 +5°C° 0 mm 1 mps 622 mmHg 61%
    21:00 +4°C° 0 mm 1 mps 622 mmHg 64%
    22:00 +4°C° 0 mm 1 mps 622 mmHg 68%
    23:00 +3°C° 0 mm 1 mps 622 mmHg 71%

    26 March, Tuesday

    Time Temperature Precipitation Wind Pressure Humidity
    00:00 +3°C° 0 mm 1 mps 621 mmHg 74%
    01:00 +3°C° 0 mm 1 mps 621 mmHg 77%
    02:00 +2°C° 0.3 mm 1 mps 621 mmHg 80%
    03:00 +2°C° 0.3 mm 1 mps 621 mmHg 84%
    04:00 +1°C° 0.3 mm 2 mps 621 mmHg 87%
    05:00 -1°C° 1.6 mm 2 mps 621 mmHg 85%
    06:00 -2°C° 1.6 mm 3 mps 621 mmHg 83%
    07:00 -2°C° 1.6 mm 3 mps 622 mmHg 81%
    08:00 -2°C° 0.2 mm 3 mps 622 mmHg 76%
    09:00 -1°C° 0.2 mm 3 mps 622 mmHg 70%
    10:00 -1°C° 0.2 mm 3 mps 622 mmHg 65%
    11:00 -2°C° 0.1 mm 4 mps 622 mmHg 62%
    12:00 -1°C° 0.1 mm 5 mps 622 mmHg 59%
    13:00 -1°C° 0.1 mm 5 mps 622 mmHg 56%
    14:00 -2°C° 0.1 mm 5 mps 622 mmHg 59%
    15:00 -2°C° 0.1 mm 5 mps 621 mmHg 62%
    16:00 -4°C° 0.1 mm 5 mps 621 mmHg 65%
    17:00 -5°C° 0.4 mm 5 mps 621 mmHg 68%
    18:00 -5°C° 0.4 mm 5 mps 621 mmHg 72%
    19:00 -5°C° 0.4 mm 4 mps 621 mmHg 75%
    20:00 -5°C° 0.5 mm 4 mps 622 mmHg 78%
    21:00 -7°C° 0.5 mm 4 mps 622 mmHg 80%
    22:00 -6°C° 0.5 mm 3 mps 622 mmHg 82%
    23:00 -6°C° 0.8 mm 3 mps 622 mmHg 84%

    27 March, Wednesday

    Time Temperature Precipitation Wind Pressure Humidity
    00:00 -6°C° 0.8 mm 3 mps 623 mmHg 87%
    01:00 -6°C° 0.8 mm 3 mps 623 mmHg 89%
    02:00 -6°C° 0.3 mm 3 mps 623 mmHg 89%
    03:00 -7°C° 0.3 mm 4 mps 623 mmHg 89%
    04:00 -8°C° 0.3 mm 4 mps 623 mmHg 88%
    05:00 -8°C° 0 mm 4 mps 623 mmHg 88%
    06:00 -7°C° 0 mm 4 mps 624 mmHg 87%
    07:00 -7°C° 0 mm 5 mps 624 mmHg 86%
    08:00 -6°C° 0 mm 5 mps 625 mmHg 83%
    09:00 -6°C° 0 mm 5 mps 625 mmHg 80%
    10:00 -5°C° 0 mm 6 mps 626 mmHg 77%
    11:00 -4°C° 0 mm 6 mps 626 mmHg 75%
    12:00 -4°C° 0 mm 6 mps 626 mmHg 72%
    13:00 -3°C° 0 mm 6 mps 626 mmHg 70%
    14:00 -3°C° 0 mm 6 mps 626 mmHg 70%
    15:00 -3°C° 0 mm 6 mps 626 mmHg 70%
    16:00 -4°C° 0 mm 6 mps 626 mmHg 70%
    17:00 -5°C° 0 mm 5 mps 626 mmHg 75%
    18:00 -5°C° 0 mm 4 mps 626 mmHg 80%
    19:00 -6°C° 0 mm 3 mps 626 mmHg 85%
    20:00 -7°C° 0 mm 3 mps 626 mmHg 87%
    21:00 -7°C° 0 mm 3 mps 626 mmHg 88%
    22:00 -7°C° 0 mm 3 mps 626 mmHg 89%
    23:00 -7°C° 0 mm 3 mps 626 mmHg 90%
    Show more